Regional Weather Roundup
Issued by NWS Kansas City/Pleasant Hill, MO

Home | Current Version | Previous Version | Graphics & Text | Print | Product List | Glossary Off
Versions: 1 2 3 4 5 6 7 8 9 10 11 12 13 14 15 16 17 18 19 20 21 22 23 24 25 26 27

000
ASUS43 KEAX 121410
RWREAX

WEATHER ROUNDUP FOR EASTERN KANSAS AND NORTHWEST MISSOURI
NATIONAL WEATHER SERVICE KANSAS CITY/PLEASANT HILL MO
800 AM CST TUE DEC 12 2017

KSZ040-057-103>105-MOZ028-029-037-043-121500-
...KANSAS CITY METROPOLITAN AREA...

CITY           SKY/WX    TMP DP  RH WIND       PRES   REMARKS
K.C. INTL      CLOUDY    19  14  81 NW6       30.34R WCI  11
K.C. DOWNTOWN  CLEAR     24  14  65 NW6       30.36R WCI  17
LEES SUMMIT    CLEAR     21  13  71 NW7       30.35R WCI  12
OLATHE - IXD   CLEAR     20  16  84 NW8       30.36R WCI  10
OLATHE - OJC   CLEAR     21  16  81 NW6       30.34R WCI  13
LAWRENCE       CLOUDY    17  13  84 W7        30.37F WCI   8

$$

MOZ001>008-011>017-020>025-030>033-038>040-044>046-053-054-121500-
...NORTHERN AND CENTRAL MISSOURI...

CITY           SKY/WX    TMP DP  RH WIND       PRES   REMARKS
ST. JOSEPH     CLOUDY    18  13  80 CALM      30.35F
MOSBY          SUNNY     21  14  73 NW5       30.35S WCI  15
WARRENSBURG    CLEAR     21  14  73 NW6       30.34S WCI  14
WHITEMAN AFB   CLEAR     21  14  76 N7        30.29R WCI  12
CLINTON        CLEAR     21  16  79 NW5       30.35R WCI  15
SEDALIA        CLEAR     21  13  71 NW8       30.33R WCI  11
WARSAW         NOT AVBL
CHILLICOTHE      N/A     19  11  70 NW7       30.34R WCI  10
KIRKSVILLE     CLEAR     17  13  84 NW9       30.27F WCI   6

$$

MOZ041-047>049-056>058-063>065-088>090-097-121500-
...EASTERN AND SOUTHERN MISSOURI...

CITY           SKY/WX    TMP DP  RH WIND       PRES   REMARKS
ST. LOUIS INTL PTCLDY    28  19  69 NW14G22   30.23R WCI  17
SPIRIT OF STL  PTCLDY    28  18  66 NW14      30.24R WCI  17
COLUMBIA       CLEAR     22  16  78 NW9       30.28S WCI  12
JEFFERSON CITY CLEAR     24  17  74 NW6       30.32R WCI  17
ROLLA          CLEAR     23  17  78 NW14      30.26R WCI  11
OSAGE BEACH    CLEAR     24  17  74 NW8       30.32R WCI  15
SPRINGFIELD    CLEAR     26  19  74 N9        30.28R WCI  17
BRANSON        CLEAR     28  23  80 NW9       30.28S WCI  20
JOPLIN         CLEAR     24  18  77 N7        30.35R WCI  16
WEST PLAINS    CLEAR     28  19  69 NW13      30.24R WCI  17

$$

IAZ060-094-KSZ022-034>040-054-083-096-NEZ052-066-093-121500-
...KANSAS...SOUTHEAST NEBRASKA AND IOWA...

CITY           SKY/WX    TMP DP  RH WIND       PRES   REMARKS
TOPEKA         CLOUDY    22  16  78 W6        30.38S WCI  14
MANHATTAN      CLOUDY    25  19  78 CALM      30.38F
EMPORIA        CLOUDY    22  18  85 NW5       30.37R WCI  16
CHANUTE        CLEAR     26  18  71 N7        30.37R WCI  18
WICHITA        CLOUDY    28  24  85 NW8       30.39S WCI  20
OMAHA          CLOUDY    15   9  76 N3        30.33F
LINCOLN        CLOUDY    19  14  81 CALM      30.35S
FALLS CITY     CLOUDY    16  12  84 NW9       30.35S WCI   4
LAMONI         CLOUDY    14   8  77 NW8       30.28F WCI   3
DES MOINES     CLOUDY    15   8  73 NW10      30.28S WCI   2

$$





USA.gov is the U.S. government's official web portal to all federal, state and local government web resources and services.